Weather History for Santa Barbara, CA

Change the Weather History Date:

Saturday, April 20, 2013

  Actual Average Record
Temperature  
Mean Temperature 70 °F 58 °F  
Max Temperature 83 °F 68 °F 94 °F (1958)
Min Temperature 56 °F 48 °F 37 °F (1961)
Degree Days  
Heating Degree Days 0 7  
Month to date heating degree days 101 162  
Since 1 July heating degree days 1832 2059  
Cooling Degree Days 5 0  
Month to date cooling degree days 14 0  
Year to date cooling degree days 18 2  
Growing Degree Days 18 (Base 50)    
Moisture  
Dew Point 50 °F    
Average Humidity 55    
Maximum Humidity 84    
Minimum Humidity 26    
Precipitation  
Precipitation 0.00 in 0.03 in 1.06 in (1983)
Month to date precipitation 0.01 0.76  
Year to date precipitation 3.29 11.40  
Since 1 July precipitation 9.36 17.11  
Sea Level Pressure  
Sea Level Pressure 29.92 in    
Wind  
Wind Speed 7 mph (SSE)    
Max Wind Speed 13 mph    
Max Gust Speed -    
Visibility 10 miles    
Events      
T = Trace of Precipitation, MM = Missing Value Source: NWS Daily Summary

Daily Weather History Graph

Daily Weather History Graph

Search for Another Location

Airport:

Trip Planner

Search our weather history database for the weather conditions in past years. The results will help you decide how hot, cold, wet, or windy it might be!

Date:

Astronomy

Apr. 20, 2013 Rise Set
Actual Time 6:21 AM PDT 7:35 PM PDT
Civil Twilight 5:55 AM PDT 8:01 PM PDT
Nautical Twilight 5:24 AM PDT 8:32 PM PDT
Astronomical Twilight 4:51 AM PDT 9:05 PM PDT
Moon 2:37 PM PDT (4/20) 2:59 AM PDT (4/20)
Length of Visible Light 14h 06m
Length of Day
13h 14m
Waxing Gibbous, 72% of the Moon is Illuminated
Apr 20
Waxing Gibbous
Apr 25
Full
May 2
Last Quarter
May 9
New
May 17
First Quarter

Hourly Weather History & Observations

Time (PDT) Temp. Dew Point Humidity Pressure Visibility Wind Dir Wind Speed Gust Speed Precip Events Conditions
12:53 AM 57.9 °F 48.0 °F 70% 29.99 in 10.0 mi NW 4.6 mph - N/A   Clear
1:53 AM 63.0 °F 45.0 °F 52% 29.96 in 10.0 mi West 4.6 mph - N/A   Clear
2:53 AM 64.0 °F 41.0 °F 43% 29.94 in 10.0 mi West 5.8 mph - N/A   Clear
3:53 AM 66.0 °F 41.0 °F 40% 29.93 in 10.0 mi West 5.8 mph - N/A   Clear
4:53 AM 61.0 °F 43.0 °F 52% 29.91 in 10.0 mi WNW 6.9 mph - N/A   Clear
5:53 AM 59.0 °F 48.9 °F 69% 29.90 in 10.0 mi South 4.6 mph - N/A   Clear
6:53 AM 55.9 °F 43.0 °F 62% 29.91 in 10.0 mi NE 5.8 mph - N/A   Clear
7:53 AM 62.1 °F 46.9 °F 58% 29.94 in 10.0 mi East 9.2 mph - N/A   Clear
8:53 AM 64.0 °F 51.1 °F 63% 29.95 in 10.0 mi ESE 11.5 mph - N/A   Clear
9:53 AM 64.0 °F 54.0 °F 70% 29.95 in 9.0 mi SE 10.4 mph - N/A   Clear
10:53 AM 66.0 °F 52.0 °F 60% 29.96 in 10.0 mi SE 10.4 mph - N/A   Clear
11:53 AM 64.9 °F 53.1 °F 65% 29.95 in 9.0 mi SSE 9.2 mph - N/A   Clear
12:53 PM 66.9 °F 53.1 °F 61% 29.94 in 9.0 mi SSE 4.6 mph - N/A   Clear
1:53 PM 77.0 °F 50.0 °F 39% 29.92 in 10.0 mi West 8.1 mph - N/A   Clear
2:53 PM 80.1 °F 43.0 °F 27% 29.92 in 10.0 mi West 12.7 mph - N/A   Clear
3:48 PM 69.8 °F 53.6 °F 56% 29.90 in 10.0 mi SSE 12.7 mph - N/A   Clear
3:53 PM 71.1 °F 54.0 °F 55% 29.90 in 10.0 mi SSE 10.4 mph - N/A   Clear
4:53 PM 64.9 °F 55.0 °F 70% 29.90 in 10.0 mi SSE 8.1 mph - N/A   Clear
5:53 PM 64.0 °F 55.0 °F 73% 29.88 in 10.0 mi SSE 5.8 mph - N/A   Clear
6:53 PM 61.0 °F 55.0 °F 81% 29.88 in 8.0 mi SSE 6.9 mph - N/A   Clear
7:53 PM 60.1 °F 54.0 °F 80% 29.88 in 9.0 mi SE 5.8 mph - N/A   Clear
8:53 PM 60.1 °F 52.0 °F 75% 29.90 in 10.0 mi SE 3.5 mph - N/A   Clear
9:53 PM 59.0 °F 54.0 °F 83% 29.92 in 8.0 mi North - - N/A   Clear
10:53 PM 59.0 °F 52.0 °F 78% 29.91 in 9.0 mi East 4.6 mph - N/A   Clear
11:53 PM 59.0 °F 52.0 °F 78% 29.92 in 10.0 mi Calm Calm - N/A   Clear